| time (UTC) | temp F | wind direction | speed knots | gust knots | rain 1hr in | rain 24hr in | rain mn in | humidity % | barometer mb |
| 20260505093040 | 0 | 0.0 | 0.0 | 0.00 | 0.00 | 0.00 | 1010.4 | ||
| 20260505091531 | 0 | 0.0 | 0.0 | 0.00 | 0.00 | 0.00 | 1010.4 | ||
| 20260505090038 | 0 | 0.0 | 0.0 | 0.00 | 0.00 | 0.00 | 1010.3 | ||
| 20260505084522 | 0 | 0.0 | 0.0 | 0.00 | 0.00 | 0.00 | 1010.2 | ||
| 20260505083019 | 62 | 234 | 0.9 | 2.6 | 0.00 | 0.00 | 0.00 | 55 | 1010.2 |
| 20260505081518 | 62 | 234 | 0.9 | 3.5 | 0.00 | 0.00 | 0.00 | 54 | 1010.4 |
| 20260505080019 | 63 | 227 | 0.0 | 3.5 | 0.00 | 0.00 | 0.00 | 53 | 1010.4 |
| 20260505074514 | 63 | 190 | 0.9 | 3.5 | 0.00 | 0.00 | 0.00 | 52 | 1010.5 |
| 20260505073024 | 64 | 198 | 2.6 | 5.2 | 0.00 | 0.00 | 0.00 | 51 | 1010.3 |
| 20260505071517 | 64 | 234 | 4.3 | 7.0 | 0.00 | 0.00 | 0.00 | 51 | 1010.4 |
| 20260505070010 | 64 | 221 | 2.6 | 6.1 | 0.00 | 0.00 | 0.00 | 51 | 1010.5 |
| 20260505064525 | 65 | 213 | 5.2 | 10.4 | 0.00 | 0.00 | 0.00 | 49 | 1010.4 |
| 20260505063009 | 65 | 211 | 5.2 | 10.4 | 0.00 | 0.00 | 0.00 | 48 | 1010.5 |
| 20260505061522 | 65 | 250 | 4.3 | 11.3 | 0.00 | 0.00 | 0.00 | 48 | 1010.6 |
| 20260505060010 | 65 | 210 | 7.0 | 10.4 | 0.00 | 0.00 | 0.00 | 48 | 1010.6 |
| 20260505054506 | 64 | 225 | 4.3 | 8.7 | 0.00 | 0.00 | 0.00 | 49 | 1010.6 |
| 20260505053005 | 64 | 216 | 4.3 | 9.6 | 0.00 | 0.00 | 0.00 | 49 | 1010.8 |
| 20260505051600 | 64 | 226 | 5.2 | 8.7 | 0.00 | 0.00 | 0.00 | 48 | 1010.8 |
| 20260505041559 | 65 | 177 | 3.5 | 7.8 | 0.00 | 0.00 | 0.00 | 46 | 1010.6 |
| 20260505040055 | 65 | 233 | 4.3 | 10.4 | 0.00 | 0.00 | 0.00 | 46 | 1010.6 |
| 20260505034551 | 65 | 216 | 4.3 | 8.7 | 0.00 | 0.00 | 0.00 | 46 | 1010.6 |
| 20260505033053 | 65 | 215 | 4.3 | 10.4 | 0.00 | 0.00 | 0.00 | 45 | 1010.7 |
| 20260505031605 | 66 | 226 | 6.1 | 11.3 | 0.00 | 0.00 | 0.00 | 45 | 1010.7 |
| 20260505030051 | 66 | 211 | 6.1 | 10.4 | 0.00 | 0.00 | 0.00 | 44 | 1010.7 |
| 20260505024549 | 66 | 217 | 5.2 | 13.9 | 0.00 | 0.00 | 0.00 | 44 | 1010.8 |
| 20260505023102 | 67 | 240 | 7.0 | 13.9 | 0.00 | 0.00 | 0.00 | 43 | 1010.9 |
| 20260505021548 | 67 | 205 | 7.0 | 13.0 | 0.00 | 0.00 | 0.00 | 42 | 1011.0 |
| 20260505020047 | 67 | 221 | 6.1 | 13.0 | 0.00 | 0.00 | 0.00 | 41 | 1010.9 |
| 20260505014547 | 67 | 207 | 6.1 | 10.4 | 0.00 | 0.00 | 0.00 | 40 | 1010.9 |
| 20260505013101 | 68 | 195 | 4.3 | 10.4 | 0.00 | 0.00 | 0.00 | 40 | 1010.7 |
| 20260505011546 | 68 | 229 | 4.3 | 9.6 | 0.00 | 0.00 | 0.00 | 39 | 1010.7 |
| 20260505010048 | 68 | 221 | 6.1 | 13.9 | 0.00 | 0.00 | 0.00 | 39 | 1010.5 |
| 20260505004553 | 68 | 216 | 6.1 | 12.2 | 0.00 | 0.00 | 0.00 | 39 | 1010.5 |
| 20260505003044 | 69 | 173 | 4.3 | 10.4 | 0.00 | 0.00 | 0.00 | 38 | 1010.3 |
| 20260505001548 | 70 | 213 | 5.2 | 12.2 | 0.00 | 0.00 | 0.00 | 37 | 1010.1 |
| 20260505000100 | 70 | 192 | 4.3 | 12.2 | 0.00 | 0.00 | 0.00 | 37 | 1010.1 |
| 20260504234542 | 70 | 219 | 7.0 | 13.0 | 0.00 | 0.00 | 0.00 | 36 | 1009.9 |
| 20260504233042 | 71 | 224 | 4.3 | 13.9 | 0.00 | 0.00 | 0.00 | 35 | 1009.8 |
| 20260504231542 | 72 | 244 | 4.3 | 13.0 | 0.00 | 0.00 | 0.00 | 34 | 1009.9 |
| 20260504230100 | 72 | 200 | 7.0 | 13.9 | 0.00 | 0.00 | 0.00 | 33 | 1009.8 |
| 20260504224540 | 73 | 227 | 4.3 | 11.3 | 0.00 | 0.00 | 0.00 | 33 | 1009.8 |
| 20260504223040 | 73 | 214 | 4.3 | 10.4 | 0.00 | 0.00 | 0.00 | 33 | 1009.8 |
| 20260504221550 | 73 | 199 | 8.7 | 17.4 | 0.00 | 0.00 | 0.00 | 32 | 1009.7 |
| 20260504220040 | 73 | 226 | 6.1 | 16.5 | 0.00 | 0.00 | 0.00 | 32 | 1009.6 |
| 20260504214538 | 74 | 231 | 4.3 | 15.6 | 0.00 | 0.00 | 0.00 | 31 | 1009.6 |
| 20260504213043 | 74 | 246 | 7.8 | 16.5 | 0.00 | 0.00 | 0.00 | 28 | 1009.7 |
| 20260504211538 | 73 | 238 | 7.0 | 15.6 | 0.00 | 0.00 | 0.00 | 32 | 1009.9 |
| 20260504210034 | 73 | 273 | 9.6 | 13.9 | 0.00 | 0.00 | 0.00 | 29 | 1010.0 |
| 20260504204534 | 73 | 234 | 4.3 | 14.8 | 0.00 | 0.00 | 0.00 | 32 | 1010.2 |
| 20260504203030 | 73 | 223 | 7.8 | 12.2 | 0.00 | 0.00 | 0.00 | 33 | 1010.5 |
| 20260504201529 | 73 | 232 | 8.7 | 17.4 | 0.00 | 0.00 | 0.00 | 30 | 1010.6 |
| 20260504200027 | 73 | 259 | 11.3 | 18.2 | 0.00 | 0.00 | 0.00 | 31 | 1011.0 |
| 20260504194525 | 72 | 274 | 8.7 | 20.0 | 0.00 | 0.00 | 0.00 | 32 | 1011.3 |
| 20260504193022 | 71 | 268 | 9.6 | 20.0 | 0.00 | 0.00 | 0.00 | 33 | 1011.3 |
| 20260504191524 | 71 | 199 | 8.7 | 14.8 | 0.00 | 0.00 | 0.00 | 34 | 1011.8 |
| 20260504190023 | 71 | 230 | 7.8 | 19.1 | 0.00 | 0.00 | 0.00 | 33 | 1011.7 |
| 20260504184519 | 72 | 214 | 7.8 | 13.9 | 0.00 | 0.00 | 0.00 | 32 | 1011.8 |
| 20260504183016 | 71 | 316 | 10.4 | 19.1 | 0.00 | 0.00 | 0.00 | 34 | 1011.9 |
| 20260504181515 | 70 | 281 | 10.4 | 20.0 | 0.00 | 0.00 | 0.00 | 34 | 1012.1 |
| 20260504180012 | 70 | 279 | 6.1 | 15.6 | 0.00 | 0.00 | 0.00 | 36 | 1012.2 |
| 20260504174511 | 69 | 219 | 11.3 | 17.4 | 0.00 | 0.00 | 0.00 | 35 | 1012.4 |
| 20260504173010 | 68 | 248 | 8.7 | 17.4 | 0.00 | 0.00 | 0.00 | 36 | 1012.5 |
| 20260504171507 | 68 | 213 | 8.7 | 18.2 | 0.00 | 0.00 | 0.00 | 39 | 1012.7 |
| 20260504160105 | 64 | 266 | 7.0 | 17.4 | 0.00 | 0.00 | 0.00 | 40 | 1013.8 |
| 20260504110106 | 47 | 209 | 2.6 | 7.0 | 0.00 | 0.00 | 0.00 | 57 | 1015.9 |